Thief River Falls, MN

9:11 AM CDT on April 29, 2017 (GMT -0500)
Thief River Falls Regional

Weather History for KTVF - January, 2013

Change the Weather History Date:

Wednesday, January 2, 2013

  Actual Average Record
Temperature  
Mean Temperature 12 °F -  
Max Temperature 21 °F 13 °F 37 °F (1997)
Min Temperature 1 °F 0 °F -33 °F (1974)
Degree Days  
Heating Degree Days 53    
Moisture  
Dew Point 10 °F    
Average Humidity 88    
Maximum Humidity 100    
Minimum Humidity 79    
Precipitation  
Precipitation 0.00 in - - ()
Sea Level Pressure  
Sea Level Pressure 29.94 in    
Wind  
Wind Speed 12 mph (West)    
Max Wind Speed 18 mph    
Max Gust Speed -    
Visibility 8 miles    
Events      
Averages and records for this station are not official NWS values.
T = Trace of Precipitation, MM = Missing Value Source: NWS Daily Summary

Daily Weather History Graph

Daily Weather History Graph

Search for Another Location

Airport or City:

Trip Planner

Search our weather history database for the weather conditions in past years. The results will help you decide how hot, cold, wet, or windy it might be!

Date:

Astronomy

Jan. 02, 2013 Rise Set
Actual Time 8:14 AM CST 4:43 PM CST
Civil Twilight 7:38 AM CST 5:19 PM CST
Nautical Twilight 6:59 AM CST 5:58 PM CST
Astronomical Twilight 6:21 AM CST 6:36 PM CST
Moon 10:44 PM CST (1/2) 10:31 AM CST (1/2)
Length of Visible Light 9h 40m
Length of Day
8h 28m
Waning Gibbous, 75% of the Moon is Illuminated
Jan 2
Waning Gibbous
Jan 4
Last Quarter
Jan 11
New
Jan 18
First Quarter
Jan 26
Full

Hourly Weather History & Observations

Time (CST) Temp. Windchill Dew Point Humidity Pressure Visibility Wind Dir Wind Speed Gust Speed Precip Events Conditions
12:15 AM 17.6 °F 4.3 °F 15.8 °F 93% 29.83 in 9.0 mi SSW 12.7 mph - N/A   Overcast
12:35 AM 15.8 °F 1.4 °F 15.8 °F 100% 29.82 in 10.0 mi SSW 13.8 mph - N/A   Overcast
12:55 AM 15.8 °F 0.9 °F 14.0 °F 93% 29.82 in 4.0 mi SSW 15.0 mph - N/A   Overcast
1:15 AM 15.8 °F 2.1 °F 12.2 °F 86% 29.81 in 2.5 mi SSW 12.7 mph - N/A   Overcast
1:35 AM 15.8 °F 1.4 °F 12.2 °F 86% 29.81 in 10.0 mi South 13.8 mph - N/A   Overcast
1:55 AM 15.8 °F 1.4 °F 12.2 °F 86% 29.81 in 10.0 mi SSW 13.8 mph - N/A   Overcast
2:15 AM 15.8 °F 2.7 °F 12.2 °F 86% 29.80 in 10.0 mi South 11.5 mph - N/A   Overcast
2:35 AM 15.8 °F 3.4 °F 12.2 °F 86% 29.81 in 10.0 mi South 10.4 mph - N/A   Overcast
2:55 AM 15.8 °F 3.4 °F 12.2 °F 86% 29.81 in 10.0 mi South 10.4 mph - N/A   Overcast
3:15 AM 14.0 °F -0.2 °F 12.2 °F 93% 29.80 in 10.0 mi South 12.7 mph - N/A   Overcast
3:35 AM 15.8 °F 3.4 °F 12.2 °F 86% 29.80 in 10.0 mi South 10.4 mph - N/A   Overcast
3:55 AM 15.8 °F 3.4 °F 10.4 °F 79% 29.80 in 9.0 mi South 10.4 mph - N/A   Overcast
4:15 AM 15.8 °F 3.4 °F 12.2 °F 86% 29.80 in 7.0 mi South 10.4 mph - N/A   Overcast
4:35 AM 15.8 °F 2.7 °F 12.2 °F 86% 29.79 in 7.0 mi South 11.5 mph - N/A   Overcast
4:55 AM 15.8 °F 4.2 °F 14.0 °F 93% 29.79 in 9.0 mi South 9.2 mph - N/A   Overcast
5:15 AM 15.8 °F 4.2 °F 14.0 °F 93% 29.79 in 5.0 mi South 9.2 mph - N/A   Overcast
5:35 AM 15.8 °F 3.4 °F 15.8 °F 100% 29.79 in 5.0 mi South 10.4 mph - N/A   Overcast
5:55 AM 17.6 °F 5.7 °F 14.0 °F 86% 29.79 in 7.0 mi South 10.4 mph - N/A   Overcast
6:15 AM 17.6 °F 5.7 °F 15.8 °F 93% 29.79 in 7.0 mi South 10.4 mph - N/A   Overcast
6:35 AM 17.6 °F 7.3 °F 15.8 °F 93% 29.79 in 10.0 mi South 8.1 mph - N/A   Overcast
6:55 AM 17.6 °F 6.4 °F 15.8 °F 93% 29.79 in 9.0 mi South 9.2 mph - N/A   Overcast
7:15 AM 17.6 °F 6.4 °F 15.8 °F 93% 29.79 in 10.0 mi SSW 9.2 mph - N/A   Overcast
7:35 AM 17.6 °F 6.4 °F 17.6 °F 100% 29.80 in 10.0 mi South 9.2 mph - N/A   Overcast
7:55 AM 19.4 °F 9.5 °F 17.6 °F 93% 29.80 in 9.0 mi SSW 8.1 mph - N/A   Overcast
8:15 AM 19.4 °F 11.5 °F 17.6 °F 93% 29.80 in 7.0 mi SSW 5.8 mph - N/A   Overcast
8:35 AM 19.4 °F 11.5 °F 17.6 °F 93% 29.81 in 8.0 mi SSW 5.8 mph - N/A   Overcast
8:55 AM 19.4 °F 12.8 °F 17.6 °F 93% 29.81 in 6.0 mi SW 4.6 mph - N/A   Overcast
9:15 AM 21.2 °F 14.9 °F 17.6 °F 86% 29.82 in 5.0 mi West 4.6 mph - N/A   Overcast
9:35 AM 21.2 °F 7.3 °F 19.4 °F 93% 29.84 in 4.0 mi NW 16.1 mph - N/A   Overcast
9:55 AM 21.2 °F 7.8 °F 19.4 °F 93% 29.85 in 5.0 mi NW 15.0 mph - N/A   Overcast
10:15 AM 19.4 °F 4.5 °F 17.6 °F 93% 29.86 in 2.5 mi NW 17.3 mph - N/A   Overcast
10:35 AM 17.6 °F 1.7 °F 15.8 °F 93% 29.88 in 3.0 mi NW 18.4 mph - N/A   Overcast
10:55 AM 17.6 °F 3.2 °F 15.8 °F 93% 29.89 in 5.0 mi NW 15.0 mph - N/A   Overcast
11:15 AM 15.8 °F -0.6 °F 14.0 °F 93% 29.89 in 6.0 mi NW 18.4 mph - N/A   Overcast
11:35 AM 15.8 °F 0.3 °F 12.2 °F 86% 29.90 in 8.0 mi NW 16.1 mph - N/A   Overcast
11:55 AM 15.8 °F -0.2 °F 12.2 °F 86% 29.91 in 10.0 mi NW 17.3 mph - N/A   Overcast
12:15 PM 15.8 °F 0.9 °F 10.4 °F 79% 29.92 in 10.0 mi NW 15.0 mph - N/A   Overcast
12:35 PM 14.0 °F -2.0 °F 10.4 °F 86% 29.92 in 10.0 mi NW 16.1 mph - N/A   Overcast
12:55 PM 14.0 °F -2.0 °F 12.2 °F 93% 29.92 in 9.0 mi WNW 16.1 mph - N/A   Overcast
1:15 PM 12.2 °F -4.3 °F 10.4 °F 92% 29.94 in 9.0 mi WNW 16.1 mph - N/A   Overcast
1:35 PM 12.2 °F -2.5 °F 8.6 °F 85% 29.94 in 8.0 mi WNW 12.7 mph - N/A   Overcast
1:55 PM 12.2 °F -4.3 °F 8.6 °F 85% 29.94 in 8.0 mi NW 16.1 mph - N/A   Overcast
2:15 PM 12.2 °F -3.7 °F 8.6 °F 85% 29.95 in 7.0 mi NW 15.0 mph - N/A   Overcast
2:35 PM 12.2 °F -1.0 °F 8.6 °F 85% 29.96 in 7.0 mi WNW 10.4 mph - N/A   Overcast
2:55 PM 12.2 °F -3.1 °F 8.6 °F 85% 29.97 in 5.0 mi WNW 13.8 mph - N/A   Overcast
3:15 PM 12.2 °F -3.7 °F 8.6 °F 85% 29.98 in 7.0 mi WNW 15.0 mph - N/A   Overcast
3:35 PM 12.2 °F -3.1 °F 6.8 °F 79% 29.98 in 6.0 mi NW 13.8 mph - N/A   Overcast
3:55 PM 10.4 °F -5.4 °F 8.6 °F 92% 30.00 in 8.0 mi NW 13.8 mph - N/A   Overcast
4:15 PM 10.4 °F -6.0 °F 8.6 °F 92% 30.01 in 9.0 mi NW 15.0 mph - N/A   Overcast
4:35 PM 10.4 °F -7.2 °F 6.8 °F 85% 30.02 in 9.0 mi NW 17.3 mph - N/A   Overcast
4:55 PM 10.4 °F -7.2 °F 6.8 °F 85% 30.04 in 10.0 mi NW 17.3 mph - N/A   Overcast
5:15 PM 8.6 °F -8.9 °F 5.0 °F 85% 30.04 in 10.0 mi NW 16.1 mph - N/A   Overcast
5:35 PM 8.6 °F -7.0 °F 3.2 °F 79% 30.05 in 10.0 mi NW 12.7 mph - N/A   Mostly Cloudy
5:55 PM 6.8 °F -9.3 °F 3.2 °F 85% 30.07 in 10.0 mi NW 12.7 mph - N/A   Mostly Cloudy
6:15 PM 6.8 °F -10.7 °F 3.2 °F 85% 30.08 in 10.0 mi NW 15.0 mph - N/A   Mostly Cloudy
6:35 PM 8.6 °F -9.5 °F 5.0 °F 85% 30.09 in 10.0 mi NW 17.3 mph - N/A   Mostly Cloudy
6:55 PM 6.8 °F -10.7 °F 3.2 °F 85% 30.11 in 10.0 mi NW 15.0 mph - N/A   Overcast
7:15 PM 6.8 °F -10.0 °F 3.2 °F 85% 30.11 in 10.0 mi NW 13.8 mph - N/A   Overcast
7:55 PM 6.8 °F -10.0 °F 1.4 °F 79% 30.13 in 10.0 mi NW 13.8 mph - N/A   Overcast
8:15 PM 5.0 °F -13.0 °F 1.4 °F 85% 30.13 in 10.0 mi NW 15.0 mph - N/A   Overcast
8:35 PM 3.2 °F -13.9 °F 1.4 °F 92% 30.14 in 10.0 mi NW 12.7 mph - N/A   Overcast
8:55 PM 3.2 °F -14.6 °F -0.4 °F 85% 30.15 in 10.0 mi NW 13.8 mph - N/A   Overcast
9:15 PM 3.2 °F -13.9 °F -0.4 °F 85% 30.14 in 10.0 mi NW 12.7 mph - N/A   Overcast
9:35 PM 3.2 °F -12.2 °F 1.4 °F 92% 30.14 in 10.0 mi NNW 10.4 mph - N/A   Overcast
9:55 PM 3.2 °F -13.9 °F 1.4 °F 92% 30.16 in 10.0 mi NW 12.7 mph - N/A   Overcast
10:15 PM 3.2 °F -13.1 °F 1.4 °F 92% 30.16 in 10.0 mi NW 11.5 mph - N/A   Overcast
10:35 PM 5.0 °F -10.0 °F 1.4 °F 85% 30.17 in 10.0 mi NNW 10.4 mph - N/A   Overcast
10:55 PM 5.0 °F -10.0 °F 1.4 °F 85% 30.17 in 10.0 mi NNW 10.4 mph - N/A   Overcast
11:15 PM 5.0 °F -9.1 °F 1.4 °F 85% 30.17 in 10.0 mi NNW 9.2 mph - N/A   Overcast
11:35 PM 3.2 °F -10.3 °F -0.4 °F 85% 30.19 in 10.0 mi WNW 8.1 mph - N/A   Overcast
11:55 PM 1.4 °F -12.5 °F -0.4 °F 92% 30.20 in 10.0 mi WNW 8.1 mph - N/A   Overcast